Tracking 28514 objects as of 24-Feb-2024
HD Live streaming from Space Station
objects crossing your sky now

STARLINK-6288

Track STARLINK-6288 now!
10-day predictions
STARLINK-6288 is classified as:


NORAD ID: 56398
Int'l Code: 2023-061AA
Perigee: 565.1 km
Apogee: 567.0 km
Inclination: 43.0 °
Period: 95.8 minutes
Semi major axis: 6937 km
RCS: Unknown
Launch date: May 4, 2023
Source: United States (US)
Launch site: AIR FORCE EASTERN TEST RANGE (AFETR)
Your satellite tracking list
Your tracking list is empty




NASA's NSSDC Master Catalog

Two Line Element Set (TLE):
1 56398U 23061AA  24054.68780502  .00011753  00000-0  88272-3 0  9991
2 56398  43.0016 272.8953 0001375 195.1383 164.9418 15.02576241 45127
Source of the keplerian elements: AFSPC